Location: ????????
(37.9452°N, 23.1472°E)
Time: 02:52:36
(UTC+00:00)

OAO 3 Rocket - Visible Passes

Search period start: 19 July 2024 00:00
Search period end: 29 July 2024 00:00
Orbit: 622 x 671 km, 35.0° (Epoch: 18 July)

Date Brightness Start Highest point End Pass type
(mag) Time Alt. Az. Time Alt. Az. Time Alt. Az.
19 Jul 5.3 01:16:31 12° SSE 01:16:31 12° SSE 01:17:03 10° SSE visible
19 Jul 4.6 18:43:40 10° SSW 18:46:43 18° SSE 18:48:08 15° SE visible
19 Jul 5.2 20:25:01 10° WSW 20:25:49 15° SW 20:25:49 15° SW visible
20 Jul 3.9 19:07:44 10° SW 19:11:45 30° SSE 19:13:03 25° SE visible
20 Jul 5.4 20:50:06 10° WSW 20:50:42 14° WSW 20:50:42 14° WSW visible
21 Jul 3.3 19:32:30 10° WSW 19:36:53 45° SSE 19:37:37 41° SE visible
22 Jul 4.0 18:15:13 10° SW 18:19:14 30° SSE 18:23:15 10° E visible
22 Jul 3.1 19:57:36 10° WSW 20:01:53 57° S 20:01:53 57° S visible
23 Jul 3.4 18:39:58 10° WSW 18:44:22 45° SSE 18:48:20 12° E visible
23 Jul 3.9 20:22:50 10° W 20:25:56 40° WSW 20:25:56 40° WSW visible
24 Jul 3.1 19:05:04 10° WSW 19:09:34 58° S 19:12:15 23° ESE visible
24 Jul 4.9 20:48:08 10° W 20:49:50 22° WSW 20:49:50 22° WSW visible
25 Jul 3.1 19:30:17 10° W 19:34:49 61° S 19:36:03 44° SE visible
25 Jul 5.8 21:13:32 10° W 21:13:38 11° W 21:13:38 11° W visible
26 Jul 3.2 18:12:29 10° WSW 18:17:01 58° S 18:21:32 10° E visible
26 Jul 3.3 19:55:35 10° W 19:59:48 51° SSW 19:59:48 51° SSW visible
27 Jul 3.2 18:37:43 10° W 18:42:15 61° S 18:45:54 15° ESE visible
27 Jul 4.5 20:20:58 10° W 20:23:30 27° WSW 20:23:30 27° WSW visible
28 Jul 3.3 19:03:00 10° W 19:07:29 52° S 19:09:35 28° SE visible
28 Jul 5.5 20:46:36 10° WSW 20:47:10 13° WSW 20:47:10 13° WSW visible
